owner,sensor,date,latitude,longitude,vertical_datum,direction_of_sea_water_velocity,sea_water_speed,upward_sea_water_velocity,qcFlag 
TABS,ioos:station:wmo:42043:1,2007-04-01T00:00:00Z,28.9818,-94.9186,2.0,271.9373466,42.6043425,-99999.0,'11111222,11111222,99999999' 
TABS,ioos:station:wmo:42043:1,2007-04-01T00:30:00Z,28.9818,-94.9186,2.0,270.7915355,44.90428042,-99999.0,'11111222,11111222,99999999' 
TABS,ioos:station:wmo:42043:1,2007-04-01T01:00:00Z,28.9818,-94.9186,2.0,264.9818158,40.81642439,-99999.0,'11111222,11111222,99999999' 
TABS,ioos:station:wmo:42043:1,2007-04-01T01:30:00Z,28.9818,-94.9186,2.0,258.50072,36.8700339,-99999.0,'11111222,11111222,99999999' 
TABS,ioos:station:wmo:42043:1,2007-04-01T02:00:00Z,28.9818,-94.9186,2.0,262.3154982,38.51585907,-99999.0,'11111222,11111222,99999999' 
TABS,ioos:station:wmo:42043:1,2007-04-01T02:30:00Z,28.9818,-94.9186,2.0,259.1614847,43.821675,-99999.0,'11111222,11111222,99999999' 
TABS,ioos:station:wmo:42043:1,2007-04-01T03:00:00Z,28.9818,-94.9186,2.0,249.5742104,42.60894038,-99999.0,'11111222,11111222,99999999' 
TABS,ioos:station:wmo:42043:1,2007-04-01T03:30:00Z,28.9818,-94.9186,2.0,256.2878943,42.82035147,-99999.0,'11111222,11111222,99999999' 
TABS,ioos:station:wmo:42043:1,2007-04-01T04:00:00Z,28.9818,-94.9186,2.0,258.5111619,33.99101352,-99999.0,'11111222,11111222,99999999' 
TABS,ioos:station:wmo:42043:1,2007-04-01T04:30:00Z,28.9818,-94.9186,2.0,265.847911,35.22242751,-99999.0,'11111222,11111222,99999999' 
TABS,ioos:station:wmo:42043:1,2007-04-01T05:00:00Z,28.9818,-94.9186,2.0,270.8432249,29.9132362,-99999.0,'11111222,11111222,99999999' 
TABS,ioos:station:wmo:42043:1,2007-04-01T05:30:00Z,28.9818,-94.9186,2.0,270.2424135,40.250359,-99999.0,'11111222,11111222,99999999' 
TABS,ioos:station:wmo:42043:1,2007-04-01T06:00:00Z,28.9818,-94.9186,2.0,251.1179828,35.28892886,-99999.0,'11111222,11111222,99999999' 
TABS,ioos:station:wmo:42043:1,2007-04-01T06:30:00Z,28.9818,-94.9186,2.0,247.058998,30.91509987,-99999.0,'11111222,11111222,99999999' 
TABS,ioos:station:wmo:42043:1,2007-04-01T07:00:00Z,28.9818,-94.9186,2.0,247.3318296,34.01770421,-99999.0,'11111222,11111222,99999999' 
TABS,ioos:station:wmo:42043:1,2007-04-01T07:30:00Z,28.9818,-94.9186,2.0,243.475428,31.37204169,-99999.0,'11111222,11111222,99999999' 
TABS,ioos:station:wmo:42043:1,2007-04-01T08:00:00Z,28.9818,-94.9186,2.0,242.4339759,41.23043657,-99999.0,'11111222,11111222,99999999' 
TABS,ioos:station:wmo:42043:1,2007-04-01T08:30:00Z,28.9818,-94.9186,2.0,233.1450864,67.32400241,-99999.0,'11111222,11111222,99999999' 
TABS,ioos:station:wmo:42043:1,2007-04-01T09:00:00Z,28.9818,-94.9186,2.0,229.5026041,64.3969976,-99999.0,'11111222,11111222,99999999' 
TABS,ioos:station:wmo:42043:1,2007-04-01T09:30:00Z,28.9818,-94.9186,2.0,226.4225018,65.49828242,-99999.0,'11111222,11111222,99999999' 
TABS,ioos:station:wmo:42043:1,2007-04-01T10:00:00Z,28.9818,-94.9186,2.0,224.1348168,65.58455458,-99999.0,'11111222,11111222,99999999' 
TABS,ioos:station:wmo:42043:1,2007-04-01T10:30:00Z,28.9818,-94.9186,2.0,221.5889109,65.4880241,-99999.0,'11111222,11111222,99999999' 
TABS,ioos:station:wmo:42043:1,2007-04-01T11:00:00Z,28.9818,-94.9186,2.0,222.4853474,66.73027049,-99999.0,'11111222,11111222,99999999' 
TABS,ioos:station:wmo:42043:1,2007-04-01T11:30:00Z,28.9818,-94.9186,2.0,218.0174999,71.7804054,-99999.0,'11111222,11111222,99999999' 
TABS,ioos:station:wmo:42043:1,2007-04-01T12:00:00Z,28.9818,-94.9186,2.0,212.892595,70.96689158,-99999.0,'11111222,11111222,99999999' 
TABS,ioos:station:wmo:42043:1,2007-04-01T12:30:00Z,28.9818,-94.9186,2.0,205.5713121,73.51060468,-99999.0,'11111222,11111222,99999999' 
TABS,ioos:station:wmo:42043:1,2007-04-01T13:00:00Z,28.9818,-94.9186,2.0,201.0469896,71.81089402,-99999.0,'11111222,11111222,99999999' 
TABS,ioos:station:wmo:42043:1,2007-04-01T13:30:00Z,28.9818,-94.9186,2.0,201.516603,62.81779366,-99999.0,'11111222,11111222,99999999' 
TABS,ioos:station:wmo:42043:1,2007-04-01T14:00:00Z,28.9818,-94.9186,2.0,203.7127758,44.31114194,-99999.0,'11111222,11111222,99999999' 
TABS,ioos:station:wmo:42043:1,2007-04-01T14:30:00Z,28.9818,-94.9186,2.0,205.1875916,32.19078906,-99999.0,'11111222,11111222,99999999' 
TABS,ioos:station:wmo:42043:1,2007-04-01T15:00:00Z,28.9818,-94.9186,2.0,197.9616769,36.77221777,-99999.0,'11111222,11111222,99999999' 
TABS,ioos:station:wmo:42043:1,2007-04-01T15:30:00Z,28.9818,-94.9186,2.0,207.2088152,39.38858972,-99999.0,'11111222,11111222,99999999' 
TABS,ioos:station:wmo:42043:1,2007-04-01T16:00:00Z,28.9818,-94.9186,2.0,212.3201441,36.43479793,-99999.0,'11111222,11111222,99999999' 
TABS,ioos:station:wmo:42043:1,2007-04-01T16:30:00Z,28.9818,-94.9186,2.0,212.8145263,29.41363629,-99999.0,'11111222,11111222,99999999' 
TABS,ioos:station:wmo:42043:1,2007-04-01T17:00:00Z,28.9818,-94.9186,2.0,195.895633,23.84168199,-99999.0,'11111222,11111222,99999999' 
TABS,ioos:station:wmo:42043:1,2007-04-01T17:30:00Z,28.9818,-94.9186,2.0,209.1234972,25.74492183,-99999.0,'11111222,11111222,99999999' 
TABS,ioos:station:wmo:42043:1,2007-04-01T18:00:00Z,28.9818,-94.9186,2.0,208.4844026,23.6306115,-99999.0,'11111222,11111222,99999999' 
TABS,ioos:station:wmo:42043:1,2007-04-01T18:30:00Z,28.9818,-94.9186,2.0,200.1734732,32.09924921,-99999.0,'11111222,11111222,99999999' 
TABS,ioos:station:wmo:42043:1,2007-04-01T19:00:00Z,28.9818,-94.9186,2.0,212.4839811,26.88672535,-99999.0,'11111222,11111222,99999999' 
TABS,ioos:station:wmo:42043:1,2007-04-01T19:30:00Z,28.9818,-94.9186,2.0,215.2247165,25.98870909,-99999.0,'11111222,11111222,99999999' 
TABS,ioos:station:wmo:42043:1,2007-04-01T20:00:00Z,28.9818,-94.9186,2.0,212.0835659,34.829443,-99999.0,'11111222,11111222,99999999' 
TABS,ioos:station:wmo:42043:1,2007-04-01T20:30:00Z,28.9818,-94.9186,2.0,215.4539151,44.68563975,-99999.0,'11111222,11111222,99999999' 
TABS,ioos:station:wmo:42043:1,2007-04-01T21:00:00Z,28.9818,-94.9186,2.0,207.662897,61.83863679,-99999.0,'11111222,11111222,99999999' 
TABS,ioos:station:wmo:42043:1,2007-04-01T21:30:00Z,28.9818,-94.9186,2.0,221.2540337,62.23813702,-99999.0,'11111222,11111222,99999999' 
TABS,ioos:station:wmo:42043:1,2007-04-01T22:00:00Z,28.9818,-94.9186,2.0,224.2223239,60.97943014,-99999.0,'11111222,11111222,99999999' 
TABS,ioos:station:wmo:42043:1,2007-04-01T22:30:00Z,28.9818,-94.9186,2.0,226.8642211,61.72067401,-99999.0,'11111222,11111222,99999999' 
TABS,ioos:station:wmo:42043:1,2007-04-01T23:00:00Z,28.9818,-94.9186,2.0,225.1066789,60.58501465,-99999.0,'11111222,11111222,99999999' 
TABS,ioos:station:wmo:42043:1,2007-04-01T23:30:00Z,28.9818,-94.9186,2.0,225.6289963,62.44836667,-99999.0,'11111222,11111222,99999999' 
TABS,ioos:station:wmo:42043:1,2007-04-02T00:00:00Z,28.9818,-94.9186,2.0,228.6043944,64.10585153,-99999.0,'11111222,11111222,99999999' 
TABS,ioos:station:wmo:42043:1,2007-04-02T00:30:00Z,28.9818,-94.9186,2.0,232.909108,58.68243519,-99999.0,'11111222,11111222,99999999' 
TABS,ioos:station:wmo:42043:1,2007-04-02T01:00:00Z,28.9818,-94.9186,2.0,238.8320307,61.69529155,-99999.0,'11111222,11111222,99999999' 
TABS,ioos:station:wmo:42043:1,2007-04-02T01:30:00Z,28.9818,-94.9186,2.0,239.361791,62.71461712,-99999.0,'11111222,11111222,99999999' 
TABS,ioos:station:wmo:42043:1,2007-04-02T02:00:00Z,28.9818,-94.9186,2.0,244.1113775,61.33515142,-99999.0,'11111222,11111222,99999999' 
TABS,ioos:station:wmo:42043:1,2007-04-02T02:30:00Z,28.9818,-94.9186,2.0,247.4962289,60.17166277,-99999.0,'11111222,11111222,99999999' 
TABS,ioos:station:wmo:42043:1,2007-04-02T03:00:00Z,28.9818,-94.9186,2.0,256.0309216,65.82663974,-99999.0,'11111222,11111222,99999999' 
TABS,ioos:station:wmo:42043:1,2007-04-02T03:30:00Z,28.9818,-94.9186,2.0,261.9475963,64.32414943,-99999.0,'11111222,11111222,99999999' 
TABS,ioos:station:wmo:42043:1,2007-04-02T04:00:00Z,28.9818,-94.9186,2.0,268.6371629,54.25533799,-99999.0,'11111222,11111222,99999999' 
TABS,ioos:station:wmo:42043:1,2007-04-02T04:30:00Z,28.9818,-94.9186,2.0,270.7388964,51.98431783,-99999.0,'11111222,11111222,99999999' 
TABS,ioos:station:wmo:42043:1,2007-04-02T05:00:00Z,28.9818,-94.9186,2.0,269.3133831,64.29461097,-99999.0,'11111222,11111222,99999999' 
TABS,ioos:station:wmo:42043:1,2007-04-02T05:30:00Z,28.9818,-94.9186,2.0,280.2345023,44.91459006,-99999.0,'11111222,11111222,99999999' 
TABS,ioos:station:wmo:42043:1,2007-04-02T06:00:00Z,28.9818,-94.9186,2.0,292.4706937,30.06241008,-99999.0,'11111222,11111222,99999999' 
TABS,ioos:station:wmo:42043:1,2007-04-02T06:30:00Z,28.9818,-94.9186,2.0,297.2304189,25.04564832,-99999.0,'11111222,11111222,99999999' 
TABS,ioos:station:wmo:42043:1,2007-04-02T07:00:00Z,28.9818,-94.9186,2.0,294.68802,26.07313176,-99999.0,'11111222,11111222,99999999' 
TABS,ioos:station:wmo:42043:1,2007-04-02T07:30:00Z,28.9818,-94.9186,2.0,303.8467412,26.42878923,-99999.0,'11111222,11111222,99999999' 
TABS,ioos:station:wmo:42043:1,2007-04-02T08:00:00Z,28.9818,-94.9186,2.0,307.3244133,23.71674514,-99999.0,'11111222,11111222,99999999' 
TABS,ioos:station:wmo:42043:1,2007-04-02T08:30:00Z,28.9818,-94.9186,2.0,303.958981,23.07578168,-99999.0,'11111222,11111222,99999999' 
TABS,ioos:station:wmo:42043:1,2007-04-02T09:00:00Z,28.9818,-94.9186,2.0,304.467225,19.8434498,-99999.0,'11111222,11111222,99999999' 
TABS,ioos:station:wmo:42043:1,2007-04-02T09:30:00Z,28.9818,-94.9186,2.0,304.355629,18.87217264,-99999.0,'11111222,11111222,99999999' 
TABS,ioos:station:wmo:42043:1,2007-04-02T10:00:00Z,28.9818,-94.9186,2.0,295.5449848,17.57828205,-99999.0,'11111222,11111222,99999999' 
TABS,ioos:station:wmo:42043:1,2007-04-02T10:30:00Z,28.9818,-94.9186,2.0,302.3698152,16.84794646,-99999.0,'11111222,11111222,99999999' 
TABS,ioos:station:wmo:42043:1,2007-04-02T11:00:00Z,28.9818,-94.9186,2.0,305.5756359,17.7045192,-99999.0,'11111222,11111222,99999999' 
TABS,ioos:station:wmo:42043:1,2007-04-02T11:30:00Z,28.9818,-94.9186,2.0,313.9394065,14.5123189,-99999.0,'11111222,11111222,99999999' 
TABS,ioos:station:wmo:42043:1,2007-04-02T12:00:00Z,28.9818,-94.9186,2.0,312.1912024,14.42817383,-99999.0,'11111222,11111222,99999999' 
TABS,ioos:station:wmo:42043:1,2007-04-02T12:30:00Z,28.9818,-94.9186,2.0,319.9732557,10.9305901,-99999.0,'11111222,11111222,99999999' 
TABS,ioos:station:wmo:42043:1,2007-04-02T13:00:00Z,28.9818,-94.9186,2.0,319.2909229,6.899485488,-99999.0,'11133222,11111222,99999999' 
TABS,ioos:station:wmo:42043:1,2007-04-02T13:30:00Z,28.9818,-94.9186,2.0,240.3365598,1.737728402,-99999.0,'11133222,11111222,99999999' 
TABS,ioos:station:wmo:42043:1,2007-04-02T14:00:00Z,28.9818,-94.9186,2.0,218.8110828,3.542033314,-99999.0,'11133222,11111222,99999999' 
TABS,ioos:station:wmo:42043:1,2007-04-02T14:30:00Z,28.9818,-94.9186,2.0,162.5118331,0.765375725,-99999.0,'11133222,11111222,99999999' 
TABS,ioos:station:wmo:42043:1,2007-04-02T15:00:00Z,28.9818,-94.9186,2.0,73.71667654,3.958800323,-99999.0,'11133222,11111222,99999999' 
TABS,ioos:station:wmo:42043:1,2007-04-02T15:30:00Z,28.9818,-94.9186,2.0,131.0727169,6.19465899,-99999.0,'11133222,11111222,99999999' 
TABS,ioos:station:wmo:42043:1,2007-04-02T16:00:00Z,28.9818,-94.9186,2.0,127.7812238,8.047018081,-99999.0,'11133222,11111222,99999999' 
TABS,ioos:station:wmo:42043:1,2007-04-02T16:30:00Z,28.9818,-94.9186,2.0,133.9850205,15.96897617,-99999.0,'11111222,11111222,99999999' 
TABS,ioos:station:wmo:42043:1,2007-04-02T17:00:00Z,28.9818,-94.9186,2.0,150.275536,17.28424138,-99999.0,'11111222,11111222,99999999' 
TABS,ioos:station:wmo:42043:1,2007-04-02T17:30:00Z,28.9818,-94.9186,2.0,152.4581601,13.90589084,-99999.0,'11111222,11111222,99999999' 
TABS,ioos:station:wmo:42043:1,2007-04-02T18:00:00Z,28.9818,-94.9186,2.0,154.0866824,17.68844255,-99999.0,'11111222,11111222,99999999' 
TABS,ioos:station:wmo:42043:1,2007-04-02T18:30:00Z,28.9818,-94.9186,2.0,162.9822189,15.34174045,-99999.0,'11111222,11111222,99999999' 
TABS,ioos:station:wmo:42043:1,2007-04-02T19:00:00Z,28.9818,-94.9186,2.0,154.0254563,17.35280957,-99999.0,'11111222,11111222,99999999' 
TABS,ioos:station:wmo:42043:1,2007-04-02T19:30:00Z,28.9818,-94.9186,2.0,164.3290157,17.77054023,-99999.0,'11111222,11111222,99999999' 
TABS,ioos:station:wmo:42043:1,2007-04-02T20:00:00Z,28.9818,-94.9186,2.0,188.515552,18.90846371,-99999.0,'11111222,11111222,99999999' 
TABS,ioos:station:wmo:42043:1,2007-04-02T20:30:00Z,28.9818,-94.9186,2.0,199.5492559,20.32147878,-99999.0,'11111222,11111222,99999999' 
TABS,ioos:station:wmo:42043:1,2007-04-02T21:00:00Z,28.9818,-94.9186,2.0,216.7613145,19.04803402,-99999.0,'11111222,11111222,99999999' 
TABS,ioos:station:wmo:42043:1,2007-04-02T21:30:00Z,28.9818,-94.9186,2.0,200.1300545,11.97129901,-99999.0,'11111222,11111222,99999999' 
TABS,ioos:station:wmo:42043:1,2007-04-02T22:00:00Z,28.9818,-94.9186,2.0,197.3584947,14.47946132,-99999.0,'11111222,11111222,99999999' 
TABS,ioos:station:wmo:42043:1,2007-04-02T22:30:00Z,28.9818,-94.9186,2.0,206.2431427,17.52657696,-99999.0,'11111222,11111222,99999999' 
TABS,ioos:station:wmo:42043:1,2007-04-02T23:00:00Z,28.9818,-94.9186,2.0,213.7980875,19.07340033,-99999.0,'11111222,11111222,99999999' 
TABS,ioos:station:wmo:42043:1,2007-04-02T23:30:00Z,28.9818,-94.9186,2.0,220.2703801,27.4443291,-99999.0,'11111222,11111222,99999999' 
TABS,ioos:station:wmo:42043:1,2007-04-03T00:00:00Z,28.9818,-94.9186,2.0,216.615811,39.28238537,-99999.0,'11111222,11111222,99999999' 
TABS,ioos:station:wmo:42043:1,2007-04-03T00:30:00Z,28.9818,-94.9186,2.0,215.2995984,36.13356473,-99999.0,'11111222,11111222,99999999' 
TABS,ioos:station:wmo:42043:1,2007-04-03T01:00:00Z,28.9818,-94.9186,2.0,213.3793488,34.29761654,-99999.0,'11111222,11111222,99999999' 
TABS,ioos:station:wmo:42043:1,2007-04-03T01:30:00Z,28.9818,-94.9186,2.0,227.9057914,31.93866152,-99999.0,'11111222,11111222,99999999' 
TABS,ioos:station:wmo:42043:1,2007-04-03T02:00:00Z,28.9818,-94.9186,2.0,231.4264419,25.83741667,-99999.0,'11111222,11111222,99999999' 
TABS,ioos:station:wmo:42043:1,2007-04-03T02:30:00Z,28.9818,-94.9186,2.0,231.3125013,22.89351437,-99999.0,'11111222,11111222,99999999' 
TABS,ioos:station:wmo:42043:1,2007-04-03T03:00:00Z,28.9818,-94.9186,2.0,229.7489021,28.01275424,-99999.0,'11111222,11111222,99999999' 
TABS,ioos:station:wmo:42043:1,2007-04-03T03:30:00Z,28.9818,-94.9186,2.0,230.1390926,25.33851022,-99999.0,'11111222,11111222,99999999' 
TABS,ioos:station:wmo:42043:1,2007-04-03T04:00:00Z,28.9818,-94.9186,2.0,235.5674259,23.98170136,-99999.0,'11111222,11111222,99999999' 
TABS,ioos:station:wmo:42043:1,2007-04-03T04:30:00Z,28.9818,-94.9186,2.0,239.418394,22.09294005,-99999.0,'11111222,11111222,99999999' 
TABS,ioos:station:wmo:42043:1,2007-04-03T05:00:00Z,28.9818,-94.9186,2.0,238.7907265,17.2340506,-99999.0,'11111222,11111222,99999999' 
TABS,ioos:station:wmo:42043:1,2007-04-03T05:30:00Z,28.9818,-94.9186,2.0,233.0669818,16.42600986,-99999.0,'11111222,11111222,99999999' 
TABS,ioos:station:wmo:42043:1,2007-04-03T06:00:00Z,28.9818,-94.9186,2.0,245.6491255,13.19371062,-99999.0,'11111222,11111222,99999999' 
TABS,ioos:station:wmo:42043:1,2007-04-03T06:30:00Z,28.9818,-94.9186,2.0,247.9893122,11.7137398,-99999.0,'11111222,11111222,99999999' 
TABS,ioos:station:wmo:42043:1,2007-04-03T07:00:00Z,28.9818,-94.9186,2.0,240.9685778,9.458382526,-99999.0,'11133222,11111222,99999999' 
TABS,ioos:station:wmo:42043:1,2007-04-03T07:30:00Z,28.9818,-94.9186,2.0,227.2941904,8.30101801,-99999.0,'11133222,11111222,99999999' 
TABS,ioos:station:wmo:42043:1,2007-04-03T08:00:00Z,28.9818,-94.9186,2.0,219.1814885,10.11423255,-99999.0,'11111222,11111222,99999999' 
TABS,ioos:station:wmo:42043:1,2007-04-03T08:30:00Z,28.9818,-94.9186,2.0,220.985518,10.505094,-99999.0,'11111222,11111222,99999999' 
TABS,ioos:station:wmo:42043:1,2007-04-03T09:00:00Z,28.9818,-94.9186,2.0,206.223268,9.753901783,-99999.0,'11133222,11111222,99999999' 
TABS,ioos:station:wmo:42043:1,2007-04-03T09:30:00Z,28.9818,-94.9186,2.0,199.4397789,10.09554357,-99999.0,'11111222,11111222,99999999' 
TABS,ioos:station:wmo:42043:1,2007-04-03T10:00:00Z,28.9818,-94.9186,2.0,212.823952,10.82898426,-99999.0,'11111222,11111222,99999999' 
TABS,ioos:station:wmo:42043:1,2007-04-03T10:30:00Z,28.9818,-94.9186,2.0,210.9964401,11.92258361,-99999.0,'11111222,11111222,99999999' 
TABS,ioos:station:wmo:42043:1,2007-04-03T11:00:00Z,28.9818,-94.9186,2.0,208.8505762,10.65215941,-99999.0,'11111222,11111222,99999999' 
TABS,ioos:station:wmo:42043:1,2007-04-03T11:30:00Z,28.9818,-94.9186,2.0,200.3248369,10.16276537,-99999.0,'11111222,11111222,99999999' 
TABS,ioos:station:wmo:42043:1,2007-04-03T12:00:00Z,28.9818,-94.9186,2.0,192.7587942,14.03659859,-99999.0,'11111222,11111222,99999999' 
TABS,ioos:station:wmo:42043:1,2007-04-03T12:30:00Z,28.9818,-94.9186,2.0,196.6652393,13.00632538,-99999.0,'11111222,11111222,99999999' 
TABS,ioos:station:wmo:42043:1,2007-04-03T13:00:00Z,28.9818,-94.9186,2.0,177.2376677,11.41325983,-99999.0,'11111222,11111222,99999999' 
TABS,ioos:station:wmo:42043:1,2007-04-03T13:30:00Z,28.9818,-94.9186,2.0,144.9410608,13.35267014,-99999.0,'11111222,11111222,99999999' 
TABS,ioos:station:wmo:42043:1,2007-04-03T14:00:00Z,28.9818,-94.9186,2.0,120.2001446,7.335645848,-99999.0,'11133222,11111222,99999999' 
TABS,ioos:station:wmo:42043:1,2007-04-03T14:30:00Z,28.9818,-94.9186,2.0,141.5498093,7.252758096,-99999.0,'11133222,11111222,99999999' 
TABS,ioos:station:wmo:42043:1,2007-04-03T15:00:00Z,28.9818,-94.9186,2.0,140.1676884,27.55481991,-99999.0,'11111222,11111222,99999999' 
TABS,ioos:station:wmo:42043:1,2007-04-03T15:30:00Z,28.9818,-94.9186,2.0,150.7791658,23.45470955,-99999.0,'11111222,11111222,99999999' 
TABS,ioos:station:wmo:42043:1,2007-04-03T16:00:00Z,28.9818,-94.9186,2.0,166.5434294,24.9242372,-99999.0,'11111222,11111222,99999999' 
TABS,ioos:station:wmo:42043:1,2007-04-03T16:30:00Z,28.9818,-94.9186,2.0,168.0275064,22.22340433,-99999.0,'11111222,11111222,99999999' 
TABS,ioos:station:wmo:42043:1,2007-04-03T17:00:00Z,28.9818,-94.9186,2.0,160.7927013,19.24104467,-99999.0,'11111222,11111222,99999999' 
TABS,ioos:station:wmo:42043:1,2007-04-03T17:30:00Z,28.9818,-94.9186,2.0,160.4117124,17.59847721,-99999.0,'11111222,11111222,99999999' 
TABS,ioos:station:wmo:42043:1,2007-04-03T18:30:00Z,28.9818,-94.9186,2.0,146.5033991,16.41644602,-99999.0,'11111222,11111222,99999999' 
TABS,ioos:station:wmo:42043:1,2007-04-03T19:00:00Z,28.9818,-94.9186,2.0,155.6240676,11.8240137,-99999.0,'11111222,11111222,99999999' 
TABS,ioos:station:wmo:42043:1,2007-04-03T19:30:00Z,28.9818,-94.9186,2.0,161.2195849,14.69220882,-99999.0,'11111222,11111222,99999999' 
TABS,ioos:station:wmo:42043:1,2007-04-03T20:00:00Z,28.9818,-94.9186,2.0,170.7262459,11.97653122,-99999.0,'11111222,11111222,99999999' 
TABS,ioos:station:wmo:42043:1,2007-04-03T20:30:00Z,28.9818,-94.9186,2.0,189.9857155,12.05259308,-99999.0,'11111222,11111222,99999999' 
TABS,ioos:station:wmo:42043:1,2007-04-03T21:00:00Z,28.9818,-94.9186,2.0,225.4737136,12.82028471,-99999.0,'11111222,11111222,99999999' 
TABS,ioos:station:wmo:42043:1,2007-04-03T21:30:00Z,28.9818,-94.9186,2.0,228.4589423,12.30486489,-99999.0,'11111222,11111222,99999999' 
TABS,ioos:station:wmo:42043:1,2007-04-03T22:00:00Z,28.9818,-94.9186,2.0,221.4589589,14.19752091,-99999.0,'11111222,11111222,99999999' 
TABS,ioos:station:wmo:42043:1,2007-04-03T22:30:00Z,28.9818,-94.9186,2.0,228.2562913,10.82915047,-99999.0,'11111222,11111222,99999999' 
TABS,ioos:station:wmo:42043:1,2007-04-03T23:00:00Z,28.9818,-94.9186,2.0,224.7602055,13.53414201,-99999.0,'11111222,11111222,99999999' 
TABS,ioos:station:wmo:42043:1,2007-04-03T23:30:00Z,28.9818,-94.9186,2.0,234.8033709,10.34041102,-99999.0,'11111222,11111222,99999999' 
TABS,ioos:station:wmo:42043:1,2007-04-04T00:00:00Z,28.9818,-94.9186,2.0,251.5966285,5.669964727,-99999.0,'11133222,11111222,99999999' 
TABS,ioos:station:wmo:42043:1,2007-04-04T00:30:00Z,28.9818,-94.9186,2.0,230.7483343,7.41240177,-99999.0,'11133222,11111222,99999999' 
TABS,ioos:station:wmo:42043:1,2007-04-04T01:00:00Z,28.9818,-94.9186,2.0,242.5790544,8.685856319,-99999.0,'11133222,11111222,99999999' 
TABS,ioos:station:wmo:42043:1,2007-04-04T01:30:00Z,28.9818,-94.9186,2.0,275.1302086,13.64465097,-99999.0,'11111222,11111222,99999999' 
TABS,ioos:station:wmo:42043:1,2007-04-04T02:00:00Z,28.9818,-94.9186,2.0,283.2566923,12.47233739,-99999.0,'11111222,11111222,99999999' 
TABS,ioos:station:wmo:42043:1,2007-04-04T02:30:00Z,28.9818,-94.9186,2.0,304.9384171,20.88386937,-99999.0,'11111222,11111222,99999999' 
TABS,ioos:station:wmo:42043:1,2007-04-04T03:00:00Z,28.9818,-94.9186,2.0,294.3614584,21.74619507,-99999.0,'11111222,11111222,99999999' 
TABS,ioos:station:wmo:42043:1,2007-04-04T03:30:00Z,28.9818,-94.9186,2.0,306.7910141,27.48402627,-99999.0,'11111222,11111222,99999999' 
TABS,ioos:station:wmo:42043:1,2007-04-04T04:00:00Z,28.9818,-94.9186,2.0,320.4823902,25.75750376,-99999.0,'11111222,11111222,99999999' 
TABS,ioos:station:wmo:42043:1,2007-04-04T04:30:00Z,28.9818,-94.9186,2.0,333.6244772,36.55543872,-99999.0,'11111222,11111222,99999999' 
TABS,ioos:station:wmo:42043:1,2007-04-04T05:00:00Z,28.9818,-94.9186,2.0,332.858224,35.97121349,-99999.0,'11111222,11111222,99999999' 
TABS,ioos:station:wmo:42043:1,2007-04-04T05:30:00Z,28.9818,-94.9186,2.0,332.9208302,33.87332284,-99999.0,'11111222,11111222,99999999' 
TABS,ioos:station:wmo:42043:1,2007-04-04T06:00:00Z,28.9818,-94.9186,2.0,328.6766731,37.68241234,-99999.0,'11111222,11111222,99999999' 
TABS,ioos:station:wmo:42043:1,2007-04-04T06:30:00Z,28.9818,-94.9186,2.0,330.8714572,38.99133237,-99999.0,'11111222,11111222,99999999' 
TABS,ioos:station:wmo:42043:1,2007-04-04T07:00:00Z,28.9818,-94.9186,2.0,332.9144277,37.88502871,-99999.0,'11111222,11111222,99999999' 
TABS,ioos:station:wmo:42043:1,2007-04-04T07:30:00Z,28.9818,-94.9186,2.0,335.5536998,36.29382868,-99999.0,'11111222,11111222,99999999' 
TABS,ioos:station:wmo:42043:1,2007-04-04T08:00:00Z,28.9818,-94.9186,2.0,333.4423504,35.94255695,-99999.0,'11111222,11111222,99999999' 
TABS,ioos:station:wmo:42043:1,2007-04-04T08:30:00Z,28.9818,-94.9186,2.0,337.4346995,33.27770725,-99999.0,'11111222,11111222,99999999' 
TABS,ioos:station:wmo:42043:1,2007-04-04T09:00:00Z,28.9818,-94.9186,2.0,334.8863523,35.31884058,-99999.0,'11111222,11111222,99999999' 
TABS,ioos:station:wmo:42043:1,2007-04-04T09:30:00Z,28.9818,-94.9186,2.0,337.2108734,33.27783797,-99999.0,'11111222,11111222,99999999' 
TABS,ioos:station:wmo:42043:1,2007-04-04T10:00:00Z,28.9818,-94.9186,2.0,332.5724004,29.69835012,-99999.0,'11111222,11111222,99999999' 
TABS,ioos:station:wmo:42043:1,2007-04-04T10:30:00Z,28.9818,-94.9186,2.0,332.4958952,30.5532666,-99999.0,'11111222,11111222,99999999' 
TABS,ioos:station:wmo:42043:1,2007-04-04T11:00:00Z,28.9818,-94.9186,2.0,340.5940516,26.30444259,-99999.0,'11111222,11111222,99999999' 
TABS,ioos:station:wmo:42043:1,2007-04-04T11:30:00Z,28.9818,-94.9186,2.0,352.1981215,20.257527,-99999.0,'11111222,11111222,99999999' 
TABS,ioos:station:wmo:42043:1,2007-04-04T12:00:00Z,28.9818,-94.9186,2.0,337.4198124,17.89154269,-99999.0,'11111222,11111222,99999999' 
TABS,ioos:station:wmo:42043:1,2007-04-04T12:30:00Z,28.9818,-94.9186,2.0,317.6799626,21.47710409,-99999.0,'11111222,11111222,99999999' 
TABS,ioos:station:wmo:42043:1,2007-04-04T13:30:00Z,28.9818,-94.9186,2.0,292.6141696,14.53769239,-99999.0,'11111222,11111222,99999999' 
TABS,ioos:station:wmo:42043:1,2007-04-04T14:00:00Z,28.9818,-94.9186,2.0,295.3607725,15.31597858,-99999.0,'11111222,11111222,99999999' 
TABS,ioos:station:wmo:42043:1,2007-04-04T14:30:00Z,28.9818,-94.9186,2.0,302.2839908,15.93301604,-99999.0,'11111222,11111222,99999999' 
TABS,ioos:station:wmo:42043:1,2007-04-04T15:00:00Z,28.9818,-94.9186,2.0,308.2085465,17.04064846,-99999.0,'11111222,11111222,99999999' 
TABS,ioos:station:wmo:42043:1,2007-04-04T15:30:00Z,28.9818,-94.9186,2.0,305.0675549,13.73279651,-99999.0,'11111222,11111222,99999999' 
TABS,ioos:station:wmo:42043:1,2007-04-04T16:00:00Z,28.9818,-94.9186,2.0,295.4129288,16.00901309,-99999.0,'11111222,11111222,99999999' 
TABS,ioos:station:wmo:42043:1,2007-04-04T16:30:00Z,28.9818,-94.9186,2.0,299.6450503,16.31555393,-99999.0,'11111222,11111222,99999999' 
TABS,ioos:station:wmo:42043:1,2007-04-04T17:00:00Z,28.9818,-94.9186,2.0,289.492722,13.3660615,-99999.0,'11111222,11111222,99999999' 